Powrót do katalogu

COSMOS 1948

GLONASS

AktywnyNawigacjaMEO
NORAD 19165·PAYLOAD·🇷🇺 Russia

Wystrzelony May 21, 1988 z Baikonur Cosmodrome

Loading…

Następne Przeloty (najbliższe 24 godziny)

TLE

ŚwieżeSource: Space-Track

Epoka: Sep 13, 2026, 12:04 UTC

1 19165U 88043C   26256.50338911 -.00000009  00000-0  00000-0 0  9996
2 19165  65.0117  70.3128 0004045 314.6703  22.0207  2.13102771297883

Śledź COSMOS 1948 w czasie rzeczywistym z AllMySat

Download on the App Store